Find Starlink 11441

NORAD ID: 62413 Int'l Des: 2024-249 Owner: SPXS Country: US Constellation: starlink operational
LEOCIRCULAR

当前视图

正在加载3D地球...

About Starlink 11441

Starlink 11441 (NORAD 62413) is a starlink constellation satellite (v2 mini d2c) launched Dec 23, 2024 by SPXS of US. It operates in LEO, CIRCULAR orbit with a mass of 960.00 kg.

关于 Starlink 11441

正在加载描述...

即将过境

Passes for default location (London). Set your location on the main map for personalized predictions.

高度历史

Loading altitude history...

两行轨道根数

1 62413U 24249E 26169.27723654 .00125167 00000-0 96204-3 0 9993
2 62413 43.0019 281.0628 0002458 270.5819 89.4767 15.70895047 85306
Epoch: Jun 18, 2026 • Age: 10 hours

当前状态

高度 356.8 km
速度 7.70 km/s
星下点 -7.21°S, 49.86°W
发射日期 Dec 23, 2024
运行时间 1.4 years
类型 internet

技术详情

分类 Payload
质量 960.00 kg
干质量 910.00 kg
总质量 960.00 kg
长度 0.30 m
直径 4.10 m
跨度 29.00 m
形状 Box + pan
制造商 SPXS
平台类型 Starlink V2MD
阶段状态 In Orbit
所有者/国家 SPXS/US

Most Searched